EW7774 North Bethesda MD US current weather conditions

sailwx.info

Wind from 219

Air temperature 7.2° C
Dewpoint -4.5° C

Last reported at 2019-Dec-05 20:58 UTC.
Time now 2019-Dec-05 21:48 UTC

Location: N 39°02' W 077°09'.
View on Google Maps.

See reports from other nearby stations

  
Tides and Currents Weather Stations Pressure Air Temp Water Temp Dewpoint Dewpoint Depression Visibility Wind Speed Wind Dir Waves Ship Positions
date/time (UTC)wind fromknots sea level pressurealtimeterstation pressurevisibilityair tempwater tempwave heightnotes
2019-Dec-05 20:58 219 7.2
2019-Dec-05 20:53 257 0 gusting 10 7.8
2019-Dec-05 20:48 015 7.8
2019-Dec-05 20:43 325 1 gusting 9 7.8
2019-Dec-05 20:38 335 1 gusting 9 7.8
2019-Dec-05 20:33 334 0 gusting 7 7.8
2019-Dec-05 20:28 358 0 gusting 9 7.8
2019-Dec-05 20:23 004 1 gusting 10 7.8
2019-Dec-05 20:18 245 7.8
2019-Dec-05 20:13 221 0 gusting 10 8.3
2019-Dec-05 20:08 037 2 gusting 8 8.3
2019-Dec-05 20:03 011 0 gusting 6 8.3
2019-Dec-05 19:58 263 8.3
2019-Dec-05 19:53 286 0 gusting 13 8.3
2019-Dec-05 19:48 022 4 gusting 13 8.3
2019-Dec-05 19:43 334 0 gusting 6 8.3
2019-Dec-05 19:38 286 8.3
2019-Dec-05 19:33 039 8.3
2019-Dec-05 19:28 291 0 gusting 8 8.3
2019-Dec-05 19:23 346 0 gusting 4 8.3
2019-Dec-05 19:18 302 0 gusting 6 8.3
2019-Dec-05 19:13 038 8.3
2019-Dec-05 19:08 006 0 gusting 8 7.8
2019-Dec-05 19:03 353 1 gusting 11 7.8
2019-Dec-05 18:58 314 1 gusting 11 7.8
2019-Dec-05 18:53 009 1 gusting 10 7.8
2019-Dec-05 18:48 355 0 gusting 9 7.8
2019-Dec-05 18:43 296 1 gusting 11 7.8
2019-Dec-05 18:38 271 2 gusting 11 7.8
2019-Dec-05 18:33 206 4 gusting 11 7.8
2019-Dec-05 18:28 308 4 gusting 11 7.8
2019-Dec-05 18:23 360 0 gusting 15 7.8
2019-Dec-05 18:18 281 0 gusting 17 7.2
2019-Dec-05 18:13 308 3 gusting 12 7.8
2019-Dec-05 18:08 254 7.8
2019-Dec-05 18:03 342 0 gusting 7 7.8
2019-Dec-05 17:58 358 0 gusting 6 7.8
2019-Dec-05 17:53 262 7.2
2019-Dec-05 17:48 029 1 gusting 8 7.2
2019-Dec-05 17:43 222 0 gusting 9 7.2
2019-Dec-05 17:38 273 1 gusting 13 7.8
2019-Dec-05 17:33 305 1 gusting 13 7.8
2019-Dec-05 17:28 326 2 gusting 7 7.8
2019-Dec-05 17:23 235 7.8
2019-Dec-05 17:18 005 0 gusting 12 7.8
2019-Dec-05 17:13 320 1 gusting 14 7.8
2019-Dec-05 17:08 002 3 gusting 14 7.8
2019-Dec-05 17:03 355 1 gusting 11 7.8
2019-Dec-05 16:58 012 1 gusting 10 7.2
2019-Dec-05 16:53 196 1 gusting 12 7.2
2019-Dec-05 16:48 281 1 gusting 8 7.8
2019-Dec-05 16:43 317 0 gusting 8 7.8
2019-Dec-05 16:38 318 0 gusting 13 7.8
2019-Dec-05 16:33 013 1 gusting 13 7.8
2019-Dec-05 16:28 015 0 gusting 13 7.8
2019-Dec-05 16:23 310 4 gusting 13 7.2
2019-Dec-05 16:18 358 1 gusting 7 7.2
2019-Dec-05 16:13 340 1 gusting 9 6.7
2019-Dec-05 16:08 349 1 gusting 13 6.7
2019-Dec-05 16:03 350 0 gusting 12 6.7
2019-Dec-05 15:58 338 2 gusting 11 6.7
2019-Dec-05 15:53 254 0 gusting 10 6.7
2019-Dec-05 15:48 296 0 gusting 13 6.1
2019-Dec-05 15:43 029 2 gusting 18 6.1
2019-Dec-05 15:38 250 3 gusting 19 6.7
2019-Dec-05 15:33 273 4 gusting 13 6.7
2019-Dec-05 15:28 351 2 gusting 15 6.7
2019-Dec-05 15:23 015 3 gusting 15 6.7
2019-Dec-05 15:18 016 2 gusting 15 6.7
2019-Dec-05 15:13 011 2 gusting 9 6.7
2019-Dec-05 15:08 025 6.1
2019-Dec-05 15:03 244 1 gusting 9 6.1
2019-Dec-05 14:58 358 2 gusting 9 6.1
2019-Dec-05 14:53 002 3 gusting 11 6.1
2019-Dec-05 14:48 026 0 gusting 11 6.1
2019-Dec-05 14:43 200 1 gusting 8 6.1
2019-Dec-05 14:38 286 0 gusting 9 5.6
2019-Dec-05 14:33 007 0 gusting 14 5.6
2019-Dec-05 14:28 320 3 gusting 14 5.6
2019-Dec-05 14:23 027 2 gusting 10 5.6
2019-Dec-05 14:18 348 1 gusting 11 5.0
2019-Dec-05 14:13 136 1 gusting 6 5.0
2019-Dec-05 14:08 302 1 gusting 7 5.0
2019-Dec-05 14:03 005 1 gusting 6 5.0
2019-Dec-05 13:58 353 0 gusting 10 4.4
2019-Dec-05 13:53 348 3 gusting 10 4.4
2019-Dec-05 13:48 002 1 gusting 7 4.4
2019-Dec-05 13:43 276 4.4
2019-Dec-05 13:38 014 1 gusting 10 3.9
2019-Dec-05 13:33 345 2 gusting 9 3.9
2019-Dec-05 13:28 316 0 gusting 7 3.9
2019-Dec-05 13:23 333 1 gusting 6 3.9
2019-Dec-05 13:18 264 0 gusting 6 3.3
2019-Dec-05 13:13 009 1 gusting 4 3.3
2019-Dec-05 13:08 350 0 gusting 4 3.3
2019-Dec-05 13:03 002 0 gusting 3 3.3
2019-Dec-05 12:58 027 0 gusting 5 3.3
2019-Dec-05 12:53 278 0 gusting 6 3.3
2019-Dec-05 12:48 016 0 gusting 5 3.3
2019-Dec-05 12:43 321 0 gusting 5 3.3
2019-Dec-05 12:38 359 0 gusting 2 3.3
2019-Dec-05 12:33 286 3.3
2019-Dec-05 12:28 269 3.3
2019-Dec-05 12:23 342 3.3
2019-Dec-05 12:18 309 1 gusting 8 3.3
2019-Dec-05 12:13 344 0 gusting 6 3.3
2019-Dec-05 12:08 264 3.3
2019-Dec-05 12:03 340 0 gusting 8 3.3
2019-Dec-05 11:58 304 1 gusting 8 3.3
2019-Dec-05 11:53 333 3.3
2019-Dec-05 11:48 011 3.3
2019-Dec-05 11:43 246 3.3
2019-Dec-05 11:38 348 0 gusting 5 3.9
2019-Dec-05 11:33 125 3.9
2019-Dec-05 11:28 258 2 gusting 6 3.9
2019-Dec-05 11:23 274 0 gusting 6 3.9
2019-Dec-05 11:18 257 0 gusting 6 3.9
2019-Dec-05 11:13 030 0 gusting 6 3.9
2019-Dec-05 11:08 281 0 gusting 14 3.9
2019-Dec-05 11:03 302 1 gusting 13 3.9
2019-Dec-05 10:58 302 0 gusting 9 4.4
2019-Dec-05 10:53 342 0 gusting 16 4.4
2019-Dec-05 10:48 352 2 gusting 12 4.4
2019-Dec-05 10:43 005 0 gusting 6 4.4
2019-Dec-05 10:38 296 0 gusting 6 4.4
2019-Dec-05 10:33 061 0 gusting 7 4.4
2019-Dec-05 10:28 002 1 gusting 7 4.4
2019-Dec-05 10:23 352 1 gusting 6 4.4
2019-Dec-05 10:18 306 0 gusting 7 4.4
2019-Dec-05 10:13 282 0 gusting 11 3.9
2019-Dec-05 10:08 359 0 gusting 10 3.9
2019-Dec-05 10:03 004 3 gusting 10 3.9
2019-Dec-05 09:58 077 0 gusting 11 3.9
2019-Dec-05 09:53 002 1 gusting 9 3.9
2019-Dec-05 09:48 076 3.9
2019-Dec-05 09:43 004 1 gusting 6 3.9
2019-Dec-05 09:38 354 3.9
2019-Dec-05 09:33 195 3.9
2019-Dec-05 09:28 231 0 gusting 5 3.9
2019-Dec-05 09:23 340 0 gusting 5 3.9
2019-Dec-05 09:18 083 0 gusting 5 3.9
2019-Dec-05 09:13 202 3.9
2019-Dec-05 09:08 270 3.9
2019-Dec-05 09:03 248 0 gusting 4 3.9
2019-Dec-05 08:58 144 3.9
2019-Dec-05 08:53 275 3.9
2019-Dec-05 08:48 291 0 gusting 3 3.3
2019-Dec-05 08:43 235 3.3
2019-Dec-05 08:38 278 3.3
2019-Dec-05 08:33 291 3.3
2019-Dec-05 08:28 019 3.3
2019-Dec-05 08:23 205 3.3
2019-Dec-05 08:18 239 3.3
2019-Dec-05 08:13 238 3.3
2019-Dec-05 08:08 239 3.3
2019-Dec-05 08:03 239 3.3
2019-Dec-05 07:58 296 3.9
2019-Dec-05 07:53 202 3.9
2019-Dec-05 07:48 217 3.9
2019-Dec-05 07:43 302 3.9
2019-Dec-05 07:38 302 3.9
2019-Dec-05 07:33 171 3.9
2019-Dec-05 07:28 264 3.9
2019-Dec-05 07:23 190 3.9
2019-Dec-05 07:18 234 3.9
2019-Dec-05 07:13 273 0 gusting 4 3.9
2019-Dec-05 07:08 045 0 gusting 3 4.4
2019-Dec-05 07:03 216 3.9
2019-Dec-05 06:58 252 3.9
2019-Dec-05 06:53 002 3.9
2019-Dec-05 06:48 002 3.9
2019-Dec-05 06:43 222 3.9
2019-Dec-05 06:38 235 3.9
2019-Dec-05 06:33 255 3.3
2019-Dec-05 06:28 205 0 gusting 3 3.3
2019-Dec-05 06:23 273 3.3
2019-Dec-05 06:18 212 2.8
2019-Dec-05 06:13 224 2.8
2019-Dec-05 06:08 291 2.8
2019-Dec-05 06:03 214 2.8
2019-Dec-05 05:58 214 3.3
2019-Dec-05 05:53 214 3.3
2019-Dec-05 05:48 214 3.3
2019-Dec-05 05:43 214 3.3
2019-Dec-05 05:38 214 3.9
2019-Dec-05 05:33 214 3.9
2019-Dec-05 05:28 214 3.9
2019-Dec-05 05:23 214 3.9
2019-Dec-05 05:18 214 3.9
2019-Dec-05 05:13 214 3.9
2019-Dec-05 05:08 213 4.4
2019-Dec-05 05:03 213 4.4
2019-Dec-05 04:58 212 4.4
2019-Dec-05 04:53 346 4.4
2019-Dec-05 04:48 346 4.4
2019-Dec-05 04:43 199 4.4
2019-Dec-05 04:38 304 4.4
2019-Dec-05 04:33 301 4.4
2019-Dec-05 04:28 300 4.4
2019-Dec-05 04:23 015 0 gusting 6 3.9
2019-Dec-05 04:18 300 3.9
2019-Dec-05 04:13 252 3.3
2019-Dec-05 04:08 300 3.3
2019-Dec-05 04:03 184 2.8
2019-Dec-05 03:58 119 2.8
2019-Dec-05 03:53 119 2.8
2019-Dec-05 03:48 119 2.8
2019-Dec-05 03:43 068 2.8
2019-Dec-05 03:38 068 2.8
2019-Dec-05 03:33 068 2.8
2019-Dec-05 03:28 068 2.2
2019-Dec-05 03:23 068 2.2
2019-Dec-05 03:18 068 2.2
2019-Dec-05 03:13 068 2.2
2019-Dec-05 03:08 068 2.2
2019-Dec-05 03:03 068 2.2
2019-Dec-05 02:58 068 2.2
2019-Dec-05 02:53 068 2.2
2019-Dec-05 02:48 068 2.2
2019-Dec-05 02:43 068 2.2
2019-Dec-05 02:38 068 2.8
2019-Dec-05 02:33 068 2.8
2019-Dec-05 02:28 068 2.8
2019-Dec-05 02:23 068 2.8
2019-Dec-05 02:18 068 3.3
2019-Dec-05 02:13 068 3.3
2019-Dec-05 02:08 068 3.3
2019-Dec-05 02:03 068 3.3
2019-Dec-05 01:58 068 3.9
2019-Dec-05 01:53 068 3.9
2019-Dec-05 01:48 068 3.9
2019-Dec-05 01:43 068 3.9
2019-Dec-05 01:38 068 3.9
2019-Dec-05 01:33 068 3.9
2019-Dec-05 01:28 068 4.4
2019-Dec-05 01:23 068 4.4
2019-Dec-05 01:18 068 4.4
2019-Dec-05 01:13 068 4.4
2019-Dec-05 01:08 068 4.4
2019-Dec-05 01:03 068 4.4
2019-Dec-05 00:58 068 5.0
2019-Dec-05 00:53 068 5.0
2019-Dec-05 00:48 010 5.0
2019-Dec-05 00:43 009 5.0
2019-Dec-05 00:38 009 5.6
2019-Dec-05 00:33 009 5.6
2019-Dec-05 00:28 016 5.6
2019-Dec-05 00:23 015 5.6
2019-Dec-05 00:18 013 6.1
2019-Dec-05 00:13 013 6.1
2019-Dec-05 00:08 296 6.1
2019-Dec-05 00:03 171 6.7
2019-Dec-04 23:58 040 6.7
2019-Dec-04 23:53 005 6.7
2019-Dec-04 23:48 008 0 gusting 4 6.7
2019-Dec-04 23:43 071 0 gusting 7 6.7
2019-Dec-04 23:38 319 1 gusting 7 6.7
2019-Dec-04 23:33 251 0 gusting 7 6.7
2019-Dec-04 23:28 250 0 gusting 6 6.7
2019-Dec-04 23:23 008 0 gusting 6 6.7
2019-Dec-04 23:18 165 0 gusting 6 6.7
2019-Dec-04 23:13 275 0 gusting 6 6.7
2019-Dec-04 23:08 323 6.1
2019-Dec-04 23:03 357 6.1
2019-Dec-04 22:58 280 6.1
2019-Dec-04 22:53 300 6.1
2019-Dec-04 22:48 329 6.1
2019-Dec-04 22:43 344 6.1
2019-Dec-04 22:38 344 6.7
2019-Dec-04 22:33 316 6.7
2019-Dec-04 22:28 245 6.7
2019-Dec-04 22:23 238 6.7
2019-Dec-04 22:18 238 6.7
2019-Dec-04 22:13 238 6.7
2019-Dec-04 22:08 237 6.7
2019-Dec-04 22:03 335 6.7
2019-Dec-04 21:58 260 6.7
2019-Dec-04 21:53 314 6.7
2019-Dec-04 21:48 252 7.2
2019-Dec-04 21:43 252 7.2
2019-Dec-04 21:38 252 7.2
2019-Dec-04 21:33 252 7.2
2019-Dec-04 21:28 252 7.2
2019-Dec-04 21:23 252 7.8
2019-Dec-04 21:18 252 7.8
2019-Dec-04 21:13 252 7.8
2019-Dec-04 21:08 255 7.8
2019-Dec-04 21:03 255 7.8
2019-Dec-04 20:58 332 7.8
2019-Dec-04 20:53 309 8.3
2019-Dec-04 20:48 342 0 gusting 3 8.3
2019-Dec-04 20:43 005 0 gusting 4 8.3
2019-Dec-04 20:38 346 8.3
2019-Dec-04 20:33 321 8.9
2019-Dec-04 20:28 205 8.9
2019-Dec-04 20:23 202 8.9
2019-Dec-04 20:18 203 8.9
2019-Dec-04 20:13 229 8.9
2019-Dec-04 20:08 244 0 gusting 2 8.9
2019-Dec-04 20:03 219 8.3
2019-Dec-04 19:58 219 8.3
2019-Dec-04 19:53 219 8.3
2019-Dec-04 19:48 219 8.3
2019-Dec-04 19:43 224 8.3
2019-Dec-04 19:38 233 8.3
2019-Dec-04 19:33 209 8.3
2019-Dec-04 19:28 227 0 gusting 6 8.3
2019-Dec-04 19:23 216 8.3
2019-Dec-04 19:18 215 8.3
2019-Dec-04 19:13 219 7.8
2019-Dec-04 19:08 333 7.8
2019-Dec-04 19:03 154 7.8
2019-Dec-04 18:58 206 7.8
2019-Dec-04 18:53 175 7.8
2019-Dec-04 18:48 170 7.8
2019-Dec-04 18:43 304 7.8
2019-Dec-04 18:38 210 7.8
2019-Dec-04 18:33 204 7.2
2019-Dec-04 18:28 183 7.2
2019-Dec-04 18:23 231 7.2
2019-Dec-04 18:18 235 7.2
2019-Dec-04 18:13 216 7.2
2019-Dec-04 18:08 354 7.2
2019-Dec-04 18:03 172 7.2
2019-Dec-04 17:58 260 0 gusting 4 7.2
2019-Dec-04 17:53 250 7.2
2019-Dec-04 17:48 302 0 gusting 5 7.2
2019-Dec-04 17:43 196 6.7
2019-Dec-04 17:38 215 0 gusting 5 6.7
2019-Dec-04 17:33 217 6.7
2019-Dec-04 17:28 227 6.7
2019-Dec-04 17:23 223 6.7
2019-Dec-04 17:18 225 0 gusting 3 6.7
2019-Dec-04 17:13 176 6.1
2019-Dec-04 17:08 178 6.1
2019-Dec-04 17:03 198 6.1
2019-Dec-04 16:58 226 5.6
2019-Dec-04 16:53 235 0 gusting 5 5.6
2019-Dec-04 16:48 229 0 gusting 4 5.6
2019-Dec-04 16:43 224 0 gusting 3 5.6
2019-Dec-04 16:38 169 0 gusting 3 5.6
2019-Dec-04 16:33 230 5.6
2019-Dec-04 16:28 250 0 gusting 2 5.6
2019-Dec-04 16:23 209 0 gusting 2 5.6
2019-Dec-04 16:18 231 5.6
2019-Dec-04 16:08 227 0 gusting 7 5.0
2019-Dec-04 16:03 202 5.0
2019-Dec-04 15:58 278 5.0
2019-Dec-04 15:53 233 4.4
2019-Dec-04 15:48 224 4.4
2019-Dec-04 15:43 224 4.4
2019-Dec-04 15:38 252 3.9
2019-Dec-04 15:33 225 3.9
2019-Dec-04 15:28 254 3.9
2019-Dec-04 15:23 173 3.3
2019-Dec-04 15:18 221 3.3
2019-Dec-04 15:13 227 3.3
2019-Dec-04 15:08 228 3.3
2019-Dec-04 15:03 226 2.8
2019-Dec-04 14:58 226 2.8
2019-Dec-04 14:53 225 2.8
2019-Dec-04 14:48 225 2.8
2019-Dec-04 14:43 194 2.8
2019-Dec-04 14:38 194 2.2
2019-Dec-04 14:33 194 2.2
2019-Dec-04 14:28 193 2.2
2019-Dec-04 14:23 184 2.2
2019-Dec-04 14:18 191 2.2
2019-Dec-04 14:13 189 2.2
2019-Dec-04 14:08 189 2.2
2019-Dec-04 14:03 189 2.2
2019-Dec-04 13:58 189 2.2
2019-Dec-04 13:53 189 1.7
2019-Dec-04 13:48 189 1.7
2019-Dec-04 13:43 189 1.7
2019-Dec-04 13:38 189 1.7
2019-Dec-04 13:33 189 1.7
2019-Dec-04 13:28 189 1.7
2019-Dec-04 13:23 194 1.1
2019-Dec-04 13:18 194 1.1
2019-Dec-04 13:13 194 1.1
2019-Dec-04 13:08 194 1.1
2019-Dec-04 13:03 194 1.1
2019-Dec-04 12:58 194 1.1
2019-Dec-04 12:53 194 0.6
2019-Dec-04 12:48 194 0.6
2019-Dec-04 12:43 194 0.6
2019-Dec-04 12:38 194 0.6
2019-Dec-04 12:33 194 0.6
2019-Dec-04 12:28 194 0.6
2019-Dec-04 12:23 194 0.6
2019-Dec-04 12:18 194 0.6
2019-Dec-04 12:13 194 0.6
2019-Dec-04 12:08 194 0.6
2019-Dec-04 12:03 194 -0.0
2019-Dec-04 11:58 194 -0.0
2019-Dec-04 11:53 194 0.6
2019-Dec-04 11:48 194 0.6
2019-Dec-04 11:43 194 0.6
2019-Dec-04 11:38 194 0.6
2019-Dec-04 11:33 194 0.6
2019-Dec-04 11:28 194 0.6
2019-Dec-04 11:23 194 0.6
2019-Dec-04 11:18 194 1.1
2019-Dec-04 11:13 194 1.1
2019-Dec-04 11:08 194 1.1
2019-Dec-04 11:03 194 1.1
2019-Dec-04 10:58 194 1.1
2019-Dec-04 10:53 194 1.1
2019-Dec-04 10:48 194 1.1
2019-Dec-04 10:43 194 1.7
2019-Dec-04 10:38 194 1.7
2019-Dec-04 10:33 194 1.7
2019-Dec-04 10:28 194 1.7
2019-Dec-04 10:23 194 1.7
2019-Dec-04 10:18 194 1.7
2019-Dec-04 10:13 194 1.7
2019-Dec-04 10:08 194 1.7
2019-Dec-04 10:03 194 1.7
2019-Dec-04 09:58 194 1.7
2019-Dec-04 09:48 194 1.7
2019-Dec-04 09:43 194 1.7
2019-Dec-04 09:38 194 1.7
2019-Dec-04 09:33 194 1.7
2019-Dec-04 09:28 194 1.7
2019-Dec-04 09:23 194 1.7
2019-Dec-04 09:18 194 1.7
2019-Dec-04 09:13 194 1.7
2019-Dec-04 09:08 194 1.7
2019-Dec-04 09:03 194 1.7
2019-Dec-04 08:58 194 1.7
2019-Dec-04 08:53 194 1.7
2019-Dec-04 08:48 194 1.7
2019-Dec-04 08:43 194 1.7
2019-Dec-04 08:38 194 1.7
2019-Dec-04 08:33 194 1.7
2019-Dec-04 08:28 194 1.7
2019-Dec-04 08:23 194 1.7
2019-Dec-04 08:18 194 1.7
2019-Dec-04 08:13 194 1.7
2019-Dec-04 08:08 194 1.7
2019-Dec-04 08:03 296 1.7
2019-Dec-04 07:58 296 1.7
2019-Dec-04 07:53 296 1.7
2019-Dec-04 07:48 296 1.7
2019-Dec-04 07:43 264 2.2
2019-Dec-04 07:38 264 2.2
2019-Dec-04 07:33 261 2.2
2019-Dec-04 07:28 260 2.2
2019-Dec-04 07:23 248 2.2
2019-Dec-04 07:18 337 2.2
2019-Dec-04 07:13 014 2.2
2019-Dec-04 07:08 032 2.8
2019-Dec-04 07:03 038 2.8
2019-Dec-04 06:58 358 2.8
2019-Dec-04 06:53 237 2.8
2019-Dec-04 06:48 215 3.3
2019-Dec-04 06:43 303 3.3
2019-Dec-04 06:38 278 3.3
2019-Dec-04 06:33 264 1 gusting 6 3.3
2019-Dec-04 06:28 286 0 gusting 5 3.3
2019-Dec-04 06:23 342 3.3
2019-Dec-04 06:18 348 2.8
2019-Dec-04 06:13 268 2.8
2019-Dec-04 06:08 270 2.8
2019-Dec-04 06:03 040 2.2
2019-Dec-04 05:58 052 2.2
2019-Dec-04 05:53 052 2.2
2019-Dec-04 05:48 052 2.2
2019-Dec-04 05:43 052 2.2
2019-Dec-04 05:38 018 2.2
2019-Dec-04 05:33 018 2.2
2019-Dec-04 05:28 018 2.2
2019-Dec-04 05:23 018 2.2
2019-Dec-04 05:18 018 2.2
2019-Dec-04 05:13 018 2.2
2019-Dec-04 05:08 018 2.8
2019-Dec-04 05:03 018 2.8
2019-Dec-04 04:58 018 2.8
2019-Dec-04 04:53 018 2.8
2019-Dec-04 04:48 015 2.8
2019-Dec-04 04:43 010 2.8
2019-Dec-04 04:38 344 2.8
2019-Dec-04 04:33 015 2.8
2019-Dec-04 04:28 001 2.8
2019-Dec-04 04:23 358 2.8
2019-Dec-04 04:18 224 2.8
2019-Dec-04 04:13 221 2.8
2019-Dec-04 04:08 306 2.8
2019-Dec-04 04:03 281 2.8
2019-Dec-04 03:58 360 2.8
2019-Dec-04 03:53 360 2.8
2019-Dec-04 03:48 358 2.8
2019-Dec-04 03:43 019 2.8
2019-Dec-04 03:38 054 2.8
2019-Dec-04 03:33 021 2.8
2019-Dec-04 03:28 019 2.8
2019-Dec-04 03:23 354 2.8
2019-Dec-04 03:18 351 2.8
2019-Dec-04 03:13 013 2.8
2019-Dec-04 03:08 014 2.8
2019-Dec-04 03:03 011 2.8
2019-Dec-04 02:58 015 2.8
2019-Dec-04 02:53 248 2.8
2019-Dec-04 02:48 291 2.8
2019-Dec-04 02:43 352 2.8
2019-Dec-04 02:38 291 2.8
2019-Dec-04 02:33 029 2.8
2019-Dec-04 02:28 023 2.8
2019-Dec-04 02:23 008 2.8
2019-Dec-04 02:18 004 2.8
2019-Dec-04 02:13 004 3.3
2019-Dec-04 02:08 035 3.3
2019-Dec-04 02:03 067 3.3
2019-Dec-04 01:58 258 2.8
2019-Dec-04 01:53 002 2.8
2019-Dec-04 01:48 001 2.8
2019-Dec-04 01:43 050 2.8
2019-Dec-04 01:38 358 2.8
2019-Dec-04 01:33 271 2.8
2019-Dec-04 01:28 341 2.8
2019-Dec-04 01:23 337 0 gusting 4 2.8
2019-Dec-04 01:18 001 0 gusting 2 2.8
2019-Dec-04 01:13 335 2.8
2019-Dec-04 01:08 025 2.8
2019-Dec-04 01:03 008 2.8
2019-Dec-04 00:58 314 2.8
2019-Dec-04 00:53 280 0 gusting 7 2.8
2019-Dec-04 00:48 223 2.8
2019-Dec-04 00:43 007 2.8
2019-Dec-04 00:38 004 2.8
2019-Dec-04 00:33 286 2.8
2019-Dec-04 00:28 268 2.2
2019-Dec-04 00:23 353 2.2
2019-Dec-04 00:18 023 2.2
2019-Dec-04 00:13 023 2.2
2019-Dec-04 00:08 023 2.8
2019-Dec-04 00:03 023 2.8
2019-Dec-03 23:58 023 2.8
2019-Dec-03 23:53 023 2.8
2019-Dec-03 23:48 023 2.8
2019-Dec-03 23:43 023 2.8
2019-Dec-03 23:38 023 2.8
2019-Dec-03 23:33 023 3.3
2019-Dec-03 23:23 023 3.3
2019-Dec-03 23:18 023 3.3
2019-Dec-03 23:13 023 3.3
2019-Dec-03 23:08 017 3.3
2019-Dec-03 23:03 018 3.9
2019-Dec-03 22:58 018 3.9
2019-Dec-03 22:53 018 3.9
2019-Dec-03 22:48 018 3.9
2019-Dec-03 22:43 017 4.4
2019-Dec-03 22:38 017 4.4
2019-Dec-03 22:33 017 4.4
2019-Dec-03 22:28 075 4.4
2019-Dec-03 22:23 161 5.0
2019-Dec-03 22:18 161 5.0
2019-Dec-03 22:13 354 5.0
2019-Dec-03 22:08 358 5.0
2019-Dec-03 22:03 306 5.0
2019-Dec-03 21:58 273 5.0
2019-Dec-03 21:53 322 0 gusting 7 5.6
2019-Dec-03 21:48 360 1 gusting 8 5.6
2019-Dec-03 21:43 258 0 gusting 8 5.6
2019-Dec-03 21:38 353 0 gusting 6 5.6
2019-Dec-03 21:33 358 5.6
2019-Dec-03 21:28 013 0 gusting 4 5.6
2019-Dec-03 21:23 340 6.1
2019-Dec-03 21:18 348 0 gusting 6 6.1
2019-Dec-03 21:13 003 6.1
2019-Dec-03 21:08 013 6.7
2019-Dec-03 21:03 248 1 gusting 12 6.7